Simultaneous Nadir Overpasses (SNOs) Predictions

Prediction of SNOs between GOES-17 and TERRA Satellite Orbit:

Table of predicted SNOs for the next 14.0 days since TLE Epoch: 8/15/2020
Index Date Time (GOES-17) GOES-17 Lat,Lon TERRA Lat,Lon Distance(km) Time Diff (sec)
1 08/15/2020 19:27:44 -0.01,-137.20 -0.67,-134.10 352.11 80
2 08/16/2020 07:46:28 0.01,-137.19 -0.45,-139.29 239.03 80
3 08/18/2020 07:34:18 0.00,-137.19 0.21,-136.34 96.80 80
4 08/18/2020 19:58:13 -0.00,-137.19 0.93,-141.49 489.11 80
5 08/20/2020 07:22:07 0.01,-137.18 0.80,-133.38 431.67 80
6 08/20/2020 19:46:03 -0.01,-137.18 0.29,-138.54 154.39 80
7 08/22/2020 19:31:13 -0.01,-137.17 -0.33,-135.59 179.73 80
8 08/23/2020 07:55:18 0.01,-137.16 -0.75,-140.79 411.90 80
9 08/25/2020 07:43:08 0.01,-137.14 -0.15,-137.83 78.69 80
10 08/27/2020 07:30:59 0.00,-137.11 0.50,-134.89 253.75 80
11 08/27/2020 19:49:35 0.00,-137.11 0.61,-140.05 333.09 80
